Location: Newark
(35.2672°N, 80.7344°W)
Time: 06:28:27
(UTC+00:00)

Tiros 1 - Pass Details

Date: 24 January 2020
Orbit: 631 x 664 km, 48.4° (Epoch: 19 February)

Event Time Altitude Azimuth Distance (km) Brightness Sun altitude
Rises 23:52:38 0° 309° (NW) 2,979 11.1 -14.4°
Reaches altitude 10° 23:55:01 10° 314° (NW) 2,070 10.2 -14.9°
Maximum altitude 23:59:42 54° 32° (NNE) 806 7.3 -15.8°
Enters shadow 00:02:08 27° 98° (E) 1,277 8.1 -16.3°
Drops below altitude 10° 00:04:24 10° 110° (ESE) 2,073 - -16.7°
Sets 00:06:48 0° 115° (ESE) 2,984 - -17.2°
